Weather History for Burlington, IA

Change the Weather History Date:

Sunday, March 10, 2013

  Actual Average Record
Temperature  
Mean Temperature 43 °F 39 °F  
Max Temperature 48 °F 48 °F 76 °F (1955)
Min Temperature 37 °F 30 °F 0 °F (1934)
Degree Days  
Heating Degree Days 22 26  
Month to date heating degree days 330 281  
Since 1 July heating degree days 4701 4659  
Cooling Degree Days 0 0  
Month to date cooling degree days 0 0  
Year to date cooling degree days 0 0  
Moisture  
Dew Point 44 °F    
Average Humidity 97    
Maximum Humidity 100    
Minimum Humidity 93    
Precipitation  
Precipitation 0.41 in 0.09 in 1.27 in (1990)
Month to date precipitation 1.63 0.85  
Year to date precipitation 5.60 3.71  
Sea Level Pressure  
Sea Level Pressure 29.64 in    
Wind  
Wind Speed 6 mph (SW)    
Max Wind Speed 15 mph    
Max Gust Speed -    
Visibility 1 miles    
Events Fog , Rain    
T = Trace of Precipitation, MM = Missing Value Source: NWS Daily Summary

Daily Weather History Graph

Daily Weather History Graph

Search for Another Location

Airport:

Trip Planner

Search our weather history database for the weather conditions in past years. The results will help you decide how hot, cold, wet, or windy it might be!

Date:

Astronomy

Mar. 10, 2013 Rise Set
Actual Time 7:23 AM CDT 7:06 PM CDT
Civil Twilight 6:56 AM CDT 7:33 PM CDT
Nautical Twilight 6:24 AM CDT 8:05 PM CDT
Astronomical Twilight 5:52 AM CDT 8:37 PM CDT
Moon 6:24 AM CDT (3/10) 6:14 PM CDT (3/10)
Length of Visible Light 12h 36m
Length of Day
11h 42m
Waning Crescent, 2% of the Moon is Illuminated
Mar 10
Waning Crescent
Mar 11
New
Mar 19
First Quarter
Mar 27
Full
Apr 2
Last Quarter

Hourly Weather History & Observations

Time (CDT) Temp. Windchill Dew Point Humidity Pressure Visibility Wind Dir Wind Speed Gust Speed Precip Events Conditions
12:53 AM - - - N/A% 29.74 in - North - - N/A   Unknown
1:53 AM - - - N/A% 29.74 in - North - - N/A   Unknown
3:53 AM - - - N/A% 29.71 in - North - - N/A   Unknown
4:53 AM - - - N/A% 29.64 in - North - - N/A   Unknown
5:53 AM - - - N/A% 29.67 in - North - - N/A   Unknown
6:53 AM - - - N/A% 29.68 in - North - - N/A   Unknown
7:53 AM - - - N/A% 29.70 in - North - - N/A   Unknown
8:53 AM - - - N/A% 29.68 in - North - - N/A   Unknown
9:53 AM 46.9 °F - 45.0 °F 93% 29.70 in - South 12.7 mph - N/A   Unknown
10:11 AM 46.4 °F 41.5 °F 46.4 °F 100% 29.69 in 2.5 mi South 10.4 mph - N/A Rain Light Rain
10:48 AM 46.4 °F 41.9 °F 46.4 °F 100% 29.67 in 1.8 mi South 9.2 mph - N/A Rain Light Rain
10:53 AM 46.0 °F 41.0 °F 46.0 °F 100% 29.69 in 1.8 mi South 10.4 mph - N/A Rain Light Rain
10:58 AM 46.4 °F - 46.4 °F 100% 29.69 in 2.0 mi North - - 0.00 in Rain Light Rain
11:00 AM 46.4 °F - 46.4 °F 100% 29.69 in - North - - 0.00 in   Unknown
11:53 AM 46.0 °F 41.9 °F 46.0 °F 100% 29.69 in 0.2 mi SSW 8.1 mph - 0.04 in Fog , Rain Rain
12:53 PM 45.0 °F 41.2 °F 45.0 °F 100% 29.67 in 0.2 mi SW 6.9 mph - 0.07 in Fog , Rain Light Rain
1:11 PM 44.6 °F 40.7 °F 44.6 °F 100% 29.67 in 0.2 mi SSW 6.9 mph - 0.02 in Fog , Rain Light Rain
1:48 PM 46.4 °F 43.5 °F 46.4 °F 100% 29.63 in 0.2 mi WSW 5.8 mph - 0.06 in Fog , Rain Light Rain
1:53 PM 46.9 °F - 46.0 °F 97% 29.65 in 0.2 mi SW 8.1 mph - 0.07 in Fog , Rain Light Rain
2:22 PM 46.4 °F 41.9 °F 46.4 °F 100% 29.67 in 0.2 mi SW 9.2 mph - 0.00 in Fog , Rain Light Rain
2:38 PM 46.4 °F 42.9 °F 46.4 °F 100% 29.65 in 0.5 mi SSW 6.9 mph - 0.02 in Fog , Rain Light Rain
2:48 PM 46.4 °F 43.5 °F 46.4 °F 100% 29.64 in 0.2 mi SSW 5.8 mph - 0.03 in Fog , Rain Light Rain
2:53 PM 46.0 °F 43.1 °F 46.0 °F 100% 29.64 in 0.2 mi SSW 5.8 mph - 0.04 in Fog , Rain Light Rain
3:08 PM 46.4 °F 44.3 °F 46.4 °F 100% 29.64 in 0.8 mi SSW 4.6 mph - 0.01 in Rain Light Rain
3:33 PM 48.2 °F - 46.4 °F 93% 29.57 in 1.0 mi East 8.1 mph - 0.02 in Rain Light Rain
3:42 PM 48.2 °F - 46.4 °F 93% 29.57 in 0.8 mi ENE 5.8 mph - 0.02 in   Overcast
3:45 PM 48.2 °F - 46.4 °F 93% 29.56 in 0.5 mi ENE 5.8 mph - 0.02 in Fog Fog
3:53 PM 46.9 °F - 46.9 °F 100% 29.54 in 0.2 mi ENE 9.2 mph - 0.02 in Fog Fog
4:03 PM 46.4 °F 42.9 °F 46.4 °F 100% 29.53 in 0.2 mi East 6.9 mph - N/A Fog Fog
4:10 PM 48.2 °F - 46.4 °F 93% 29.54 in 1.2 mi ESE 3.5 mph - N/A   Overcast
4:14 PM 48.2 °F - 48.2 °F 100% 29.56 in 3.0 mi Variable 3.5 mph - N/A   Overcast
4:20 PM 48.2 °F - 46.4 °F 93% 29.58 in 1.8 mi WSW 8.1 mph - N/A   Overcast
4:28 PM 46.4 °F 41.5 °F 46.4 °F 100% 29.60 in 0.5 mi WSW 10.4 mph - 0.00 in Fog , Rain Light Rain
4:40 PM 46.4 °F 41.1 °F 46.4 °F 100% 29.62 in 1.2 mi WSW 11.5 mph - 0.01 in Rain Light Rain
4:49 PM 46.4 °F 41.9 °F 46.4 °F 100% 29.62 in 0.5 mi SW 9.2 mph - 0.02 in Fog , Rain Light Rain
4:53 PM 46.0 °F 40.6 °F 46.0 °F 100% 29.62 in 0.5 mi SW 11.5 mph - 0.02 in Fog , Rain Light Rain
5:02 PM 46.4 °F 41.9 °F 44.6 °F 93% 29.63 in 2.0 mi SW 9.2 mph - 0.01 in Rain Light Rain
5:10 PM 44.6 °F 40.2 °F 44.6 °F 100% 29.63 in 1.5 mi WSW 8.1 mph - 0.03 in Rain Rain
5:53 PM 45.0 °F 42.6 °F 45.0 °F 100% 29.60 in 0.8 mi West 4.6 mph - 0.10 in Rain Light Rain
6:23 PM 44.6 °F 41.4 °F 44.6 °F 100% 29.61 in 0.2 mi WSW 5.8 mph - 0.00 in Fog Fog
6:32 PM 44.6 °F 42.2 °F 44.6 °F 100% 29.61 in 0.2 mi WSW 4.6 mph - 0.00 in Fog , Rain Light Rain
6:44 PM 44.6 °F 40.7 °F 44.6 °F 100% 29.62 in 0.5 mi WSW 6.9 mph - 0.01 in Fog , Rain Light Rain
6:53 PM 44.1 °F 40.8 °F 44.1 °F 100% 29.62 in 0.5 mi WSW 5.8 mph - 0.02 in Fog , Rain Light Rain
7:07 PM 44.6 °F 40.7 °F 44.6 °F 100% 29.62 in 2.5 mi WSW 6.9 mph - 0.01 in Rain Light Rain
7:15 PM 44.6 °F 40.2 °F 44.6 °F 100% 29.63 in 4.0 mi WSW 8.1 mph - 0.01 in Rain Light Rain
7:30 PM 44.6 °F 40.7 °F 42.8 °F 93% 29.63 in 2.0 mi WSW 6.9 mph - 0.02 in   Overcast
7:42 PM 42.8 °F 39.3 °F 42.8 °F 100% 29.63 in 1.0 mi WSW 5.8 mph - 0.02 in   Overcast
7:50 PM 42.8 °F 39.3 °F 42.8 °F 100% 29.63 in 0.8 mi SW 5.8 mph - 0.02 in   Overcast
7:53 PM 43.0 °F 39.5 °F 43.0 °F 100% 29.64 in 0.5 mi SW 5.8 mph - 0.02 in Fog Fog
8:05 PM 42.8 °F 40.1 °F 42.8 °F 100% 29.63 in 0.5 mi SW 4.6 mph - 0.00 in Fog Fog
8:19 PM 42.8 °F 41.1 °F 42.8 °F 100% 29.64 in 0.2 mi SSW 3.5 mph - 0.00 in Fog Fog
8:53 PM 43.0 °F - 42.1 °F 97% 29.64 in 0.2 mi Calm Calm - 0.00 in Fog Fog
9:53 PM 42.1 °F 39.2 °F 42.1 °F 100% 29.65 in 0.2 mi SSW 4.6 mph - N/A Fog Fog
10:12 PM 41.0 °F 38.0 °F 39.2 °F 93% 29.65 in 0.2 mi SW 4.6 mph - N/A Fog Fog
10:53 PM 41.0 °F 38.0 °F 39.2 °F 93% 29.65 in 0.2 mi WNW 4.6 mph - N/A Fog Fog
11:53 PM 39.0 °F 35.7 °F 39.0 °F 100% 29.66 in 0.2 mi West 4.6 mph - 0.01 in Fog Fog
12:22 AM 37.4 °F 29.8 °F 37.4 °F 100% 29.65 in 0.5 mi WSW 11.5 mph - N/A Fog Fog
12:34 AM 37.4 °F 30.3 °F 37.4 °F 100% 29.65 in 1.8 mi WSW 10.4 mph - N/A   Overcast
12:48 AM 37.4 °F 30.8 °F 37.4 °F 100% 29.65 in 0.8 mi West 9.2 mph - N/A   Mist
12:53 AM 37.9 °F 32.7 °F 37.0 °F 97% 29.67 in 1.0 mi West 6.9 mph - N/A   Mist